Location: Henham
(51.9333°N, 0.2500°E)
Time: 13:20:08
(UTC+00:00)

STARLINK-59 - Pass Details

Date: 23 October 2019
Orbit: 548 x 551 km, 53.0° (Epoch: 22 November)

Event Time Altitude Azimuth Distance (km) Brightness Sun altitude
Rises 18:51:24 0° 284° (WNW) 2,721 8.8 -19.5°
Reaches altitude 10° 18:53:38 10° 284° (WNW) 1,827 7.5 -19.8°
Maximum altitude 18:57:47 83° 199° (SSW) 559 3.5 -20.5°
Enters shadow 18:58:26 62° 120° (ESE) 623 3.5 -20.6°
